User: anonymous   Login
Location: Unspecified
(0.0000°N, 0.0000°E)
Time: 11:11:36
(UTC+00:00)
Language:

OAO 2 - Orbit

View from above orbital plane
View from above orbital plane
View from above satellite
View from above satellite

Ground track
Ground track

The orbit data is extracted from the following two-line orbital elements,

1  3597U 68110A   19081.31828889  .00000005  00000-0  65529-5 0  9993
2  3597  34.9945  46.8940 0005717 340.7279  19.3194 14.45825253651034
Epoch (UTC): 22 March 2019 07:38:20
Eccentricity: 0.0005717
inclination: 34.9945°
perigee height: 735 km
apogee height: 743 km
right ascension of ascending node: 46.8940°
argument of perigee: 340.7279°
revolutions per day: 14.45825253
mean anomaly at epoch: 19.3194°
orbit number at epoch: 65103

The dashed part of the orbit path shows where the satellite is in the earth's shadow,  

DLR